Poughkeepsie, NY

12:26 AM EDT on September 20, 2017 (GMT -0400)
Dutchess County

Weather History for KPOU - April, 2013

Change the Weather History Date:

Sunday, April 14, 2013

  Actual Average Record
Temperature  
Mean Temperature 44 °F 48 °F  
Max Temperature 53 °F 60 °F 80 °F (1960)
Min Temperature 34 °F 36 °F 23 °F (1956)
Degree Days  
Heating Degree Days 21 17  
Month to date heating degree days 259 272  
Since 1 July heating degree days 5248 5717  
Cooling Degree Days 0 0  
Month to date cooling degree days 0 0  
Year to date cooling degree days 0 0  
Moisture  
Dew Point 29 °F    
Average Humidity 60    
Maximum Humidity 85    
Minimum Humidity 35    
Precipitation  
Precipitation 0.00 in 0.13 in 1.00 in (1981)
Month to date precipitation 0.62 1.81  
Year to date precipitation 5.76 11.12  
Sea Level Pressure  
Sea Level Pressure 30.06 in    
Wind  
Wind Speed 6 mph (NW)    
Max Wind Speed 20 mph    
Max Gust Speed 25 mph    
Visibility 10 miles    
Events      
T = Trace of Precipitation, MM = Missing Value Source: NWS Daily Summary

Daily Weather History Graph

Daily Weather History Graph

Search for Another Location

Airport or City:

Trip Planner

Search our weather history database for the weather conditions in past years. The results will help you decide how hot, cold, wet, or windy it might be!

Date:

Astronomy

Apr. 14, 2013 Rise Set
Actual Time 6:16 AM EDT 7:35 PM EDT
Civil Twilight 5:48 AM EDT 8:04 PM EDT
Nautical Twilight 5:13 AM EDT 8:38 PM EDT
Astronomical Twilight 4:37 AM EDT 9:15 PM EDT
Moon 8:49 AM EDT (4/14) 11:48 PM EDT (4/14)
Length of Visible Light 14h 16m
Length of Day
13h 18m
Waxing Crescent, 17% of the Moon is Illuminated
Apr 14
Waxing Crescent
Apr 18
First Quarter
Apr 25
Full
May 2
Last Quarter
May 9
New

Hourly Weather History & Observations

Time (EDT) Temp. Windchill Dew Point Humidity Pressure Visibility Wind Dir Wind Speed Gust Speed Precip Events Conditions
12:53 AM 42.1 °F - 35.1 °F 76% 29.94 in 10.0 mi Calm Calm - N/A   Overcast
1:53 AM 41.0 °F - 35.1 °F 79% 29.95 in 10.0 mi Calm Calm - N/A   Mostly Cloudy
2:53 AM 41.0 °F - 36.0 °F 82% 29.94 in 10.0 mi Calm Calm - N/A   Mostly Cloudy
3:53 AM 39.9 °F - 35.1 °F 83% 29.94 in 10.0 mi Calm Calm - N/A   Mostly Cloudy
4:53 AM 39.0 °F 36.8 °F 35.1 °F 86% 29.94 in 10.0 mi NE 3.5 mph - N/A   Overcast
5:53 AM 39.9 °F - 34.0 °F 79% 29.96 in 10.0 mi Calm Calm - N/A   Overcast
6:53 AM 41.0 °F 37.1 °F 36.0 °F 82% 29.99 in 10.0 mi NW 5.8 mph - N/A   Mostly Cloudy
7:53 AM 44.1 °F 42.5 °F 36.0 °F 73% 30.02 in 10.0 mi WNW 3.5 mph - N/A   Overcast
8:53 AM 46.9 °F - 32.0 °F 56% 30.03 in 10.0 mi Variable 5.8 mph - N/A   Mostly Cloudy
9:53 AM 48.0 °F - 26.1 °F 42% 30.04 in 10.0 mi WNW 13.8 mph 24.2 mph N/A   Mostly Cloudy
10:53 AM 48.9 °F - 26.1 °F 41% 30.05 in 10.0 mi West 9.2 mph 19.6 mph N/A   Mostly Cloudy
11:53 AM 48.9 °F - 25.0 °F 39% 30.06 in 10.0 mi West 13.8 mph 20.7 mph N/A   Mostly Cloudy
12:53 PM 50.0 °F - 25.0 °F 38% 30.06 in 10.0 mi WNW 11.5 mph - N/A   Overcast
1:53 PM 50.0 °F - 26.1 °F 39% 30.07 in 10.0 mi NW 15.0 mph 20.7 mph N/A   Overcast
2:53 PM 50.0 °F - 26.1 °F 39% 30.08 in 10.0 mi Variable 4.6 mph - N/A   Overcast
4:53 PM 52.0 °F - 26.1 °F 37% 30.10 in 10.0 mi NW 11.5 mph 20.7 mph N/A   Partly Cloudy
5:53 PM 51.1 °F - 26.1 °F 38% 30.12 in 10.0 mi NNW 9.2 mph - N/A   Clear
6:53 PM 48.9 °F - 24.1 °F 38% 30.13 in 10.0 mi NNW 8.1 mph - N/A   Clear
7:53 PM 46.0 °F 43.9 °F 25.0 °F 44% 30.16 in 10.0 mi NE 4.6 mph - N/A   Clear
8:53 PM 44.1 °F - 25.0 °F 47% 30.19 in 10.0 mi Calm Calm - N/A   Clear
9:53 PM 39.9 °F - 27.0 °F 60% 30.20 in 10.0 mi Calm Calm - N/A   Clear
10:53 PM 39.0 °F - 28.0 °F 65% 30.22 in 10.0 mi Calm Calm - N/A   Clear
11:53 PM 37.0 °F - 28.0 °F 70% 30.22 in 10.0 mi Calm Calm - N/A   Clear